This is the latest recevied weather packets stored in our database for station/object WX5RP. If no packets are shown the sender has not sent any weather packets the latest 10 day(s).
| Time | Temp. | Humidity | Pressure | Rain* | Wind** | Luminosity | Snow |
|---|---|---|---|---|---|---|---|
| 1778199316 | 23.89° C | 19% | 1016.1 hPa | 0 mm | - | 484 W/m² | - |
| 1778198716 | 24.44° C | 21% | 1016 hPa | 0 mm | - | 514 W/m² | - |
| 1778198115 | 24.44° C | 20% | 1016.3 hPa | 0 mm | - | 550 W/m² | - |
| 1778197516 | 24.44° C | 19% | 1016.6 hPa | 0 mm | - | 573 W/m² | - |
| 1778196916 | 24.44° C | 22% | 1016.7 hPa | 0 mm | - | 605 W/m² | - |
| 1778196315 | 24.44° C | 16% | 1016.9 hPa | 0 mm | - | 628 W/m² | - |
| 1778195715 | 25° C | 18% | 1016.9 hPa | 0 mm | - | 657 W/m² | - |
| 1778195116 | 25° C | 20% | 1015.9 hPa | 0 mm | - | 687 W/m² | - |
| 1778194515 | 25° C | 17% | 1015.9 hPa | 0 mm | - | 710 W/m² | - |
| 1778193917 | 25° C | 19% | 1015.9 hPa | 0 mm | - | 744 W/m² | - |
| 1778193318 | 24.44° C | 17% | 1015.7 hPa | 0 mm | - | 755 W/m² | - |
| 1778192717 | 25° C | 18% | 1016 hPa | 0 mm | - | 778 W/m² | - |
| 1778192117 | 25° C | 16% | 1016 hPa | 0 mm | - | 796 W/m² | - |
| 1778191515 | 25° C | 20% | 1016.9 hPa | 0 mm | - | 816 W/m² | - |
| 1778190917 | 25° C | 19% | 1017.2 hPa | 0 mm | - | 847 W/m² | - |
| 1778190321 | 25° C | 19% | 1017.2 hPa | 0 mm | - | 865 W/m² | - |
| 1778189717 | 25° C | 19% | 1017.1 hPa | 0 mm | - | 892 W/m² | - |
| 1778189117 | 25° C | 22% | 1017.7 hPa | 0 mm | - | 63 W/m² | - |
| 1778188517 | 25° C | 20% | 1017.9 hPa | 0 mm | - | 920 W/m² | - |
| 1778187918 | 24.44° C | 19% | 1017.7 hPa | 0 mm | - | 940 W/m² | - |
| 1778187317 | 23.89° C | 21% | 1017.9 hPa | 0 mm | - | 951 W/m² | - |
| 1778186717 | 23.89° C | 18% | 1017.9 hPa | 0 mm | - | 962 W/m² | - |
| 1778186117 | 23.89° C | 22% | 1018.2 hPa | 0 mm | - | 973 W/m² | - |
| 1778185517 | 23.89° C | 20% | 1018.3 hPa | 0 mm | - | 967 W/m² | - |
| 1778184917 | 23.89° C | 24% | 1018.4 hPa | 0 mm | - | 984 W/m² | - |
* Rain latest hour (hover to see other rain measurements)
** Current wind speed in m/s (hover to see current wind gust speed)